Location: Mercogliano
(40.9167°N, 14.7333°E)
Time: 21:51:18
(UTC+00:00)

CZ-2C R/B - Pass Details

Date: 24 January 2021
Orbit: 785 x 870 km, 98.2° (Epoch: 06 March)

Event Time Altitude Azimuth Distance (km) Brightness Sun altitude
Exits shadow 19:51:58 16° 317° (NW) 2,128 5.2 -42.0°
Maximum altitude 19:53:27 17° 299° (WNW) 2,038 5.2 -42.3°
Drops below altitude 10° 19:56:57 10° 259° (W) 2,512 5.7 -42.9°
Sets 20:00:08 0° 241° (WSW) 3,448 6.4 -43.5°
